iso_date,epoch_date,Year,Hour,Min,DOY,POS_DOY,Lat,Lon,BP,Ts,Ta,has_bp,has_ts,has_ta,BuoyID,Buoy_Type,Buoy_Owner,Logistics,Hemisphere
2018-08-10T19:00:28Z,1533927629,2018,19,0,222.792,222.792,60.856,-17.242,1014.4,12.22,-999.0,yes,yes,no,300234063730900,BD2GI,AOML,BRUARFOSS,North
2018-08-10T19:59:31Z,1533931171,2018,20,0,222.833,222.833,60.862,-17.227,1014.4,12.23,-999.0,yes,yes,no,300234063730900,BD2GI,AOML,BRUARFOSS,North
2018-08-10T21:00:00Z,1533934800,2018,21,0,222.875,222.875,60.865,-17.211,1014.4,12.22,-999.0,yes,yes,no,300234063730900,BD2GI,AOML,BRUARFOSS,North
2018-08-10T22:00:28Z,1533938429,2018,22,0,222.917,222.917,60.868,-17.195,1014.3,12.2,-999.0,yes,yes,no,300234063730900,BD2GI,AOML,BRUARFOSS,North
2018-08-10T22:59:31Z,1533941971,2018,23,0,222.958,222.958,60.869,-17.182,1014.1,12.18,-999.0,yes,yes,no,300234063730900,BD2GI,AOML,BRUARFOSS,North
2018-08-11T00:00:00Z,1533945600,2018,0,0,223.0,223.0,60.869,-17.175,1013.9,12.16,-999.0,yes,yes,no,300234063730900,BD2GI,AOML,BRUARFOSS,North
2018-08-11T01:00:28Z,1533949229,2018,1,0,223.042,223.042,60.868,-17.173,1013.4,12.1,-999.0,yes,yes,no,300234063730900,BD2GI,AOML,BRUARFOSS,North
2018-08-11T01:59:31Z,1533952771,2018,2,0,223.083,223.083,60.867,-17.176,1013.0,12.09,-999.0,yes,yes,no,300234063730900,BD2GI,AOML,BRUARFOSS,North
2018-08-11T03:00:00Z,1533956400,2018,3,0,223.125,223.125,60.867,-17.182,1012.6,12.1,-999.0,yes,yes,no,300234063730900,BD2GI,AOML,BRUARFOSS,North
2018-08-11T04:00:28Z,1533960029,2018,4,0,223.167,223.167,60.869,-17.192,1012.0,12.12,-999.0,yes,yes,no,300234063730900,BD2GI,AOML,BRUARFOSS,North
2018-08-11T04:59:31Z,1533963571,2018,5,0,223.208,223.208,60.874,-17.202,1011.6,12.11,-999.0,yes,yes,no,300234063730900,BD2GI,AOML,BRUARFOSS,North
2018-08-11T06:00:00Z,1533967200,2018,6,0,223.25,223.25,60.881,-17.212,1011.5,12.17,-999.0,yes,yes,no,300234063730900,BD2GI,AOML,BRUARFOSS,North
2018-08-11T07:00:28Z,1533970829,2018,7,0,223.292,223.292,60.89,-17.218,1011.6,12.2,-999.0,yes,yes,no,300234063730900,BD2GI,AOML,BRUARFOSS,North
2018-08-11T07:59:31Z,1533974371,2018,8,0,223.333,223.333,60.899,-17.221,1011.8,12.2,-999.0,yes,yes,no,300234063730900,BD2GI,AOML,BRUARFOSS,North
2018-08-11T09:00:00Z,1533978000,2018,9,0,223.375,223.375,60.91,-17.221,1011.8,12.22,-999.0,yes,yes,no,300234063730900,BD2GI,AOML,BRUARFOSS,North
2018-08-11T10:00:28Z,1533981629,2018,10,0,223.417,223.417,60.919,-17.217,1011.6,12.2,-999.0,yes,yes,no,300234063730900,BD2GI,AOML,BRUARFOSS,North
2018-08-11T10:59:31Z,1533985171,2018,11,0,223.458,223.458,60.926,-17.21,1011.6,12.23,-999.0,yes,yes,no,300234063730900,BD2GI,AOML,BRUARFOSS,North
2018-08-11T12:00:00Z,1533988800,2018,12,0,223.5,223.5,60.932,-17.207,1011.6,12.26,-999.0,yes,yes,no,300234063730900,BD2GI,AOML,BRUARFOSS,North
2018-08-11T13:00:28Z,1533992429,2018,13,0,223.542,223.542,60.936,-17.206,1011.8,12.22,-999.0,yes,yes,no,300234063730900,BD2GI,AOML,BRUARFOSS,North
2018-08-11T13:59:31Z,1533995971,2018,14,0,223.583,223.583,60.938,-17.208,1011.9,12.22,-999.0,yes,yes,no,300234063730900,BD2GI,AOML,BRUARFOSS,North
2018-08-11T15:00:00Z,1533999600,2018,15,0,223.625,223.625,60.939,-17.215,1011.9,12.25,-999.0,yes,yes,no,300234063730900,BD2GI,AOML,BRUARFOSS,North
2018-08-11T16:00:28Z,1534003229,2018,16,0,223.667,223.667,60.941,-17.227,1011.8,12.27,-999.0,yes,yes,no,300234063730900,BD2GI,AOML,BRUARFOSS,North
2018-08-11T16:59:31Z,1534006771,2018,17,0,223.708,223.708,60.944,-17.242,1011.6,12.26,-999.0,yes,yes,no,300234063730900,BD2GI,AOML,BRUARFOSS,North
2018-08-11T18:00:00Z,1534010400,2018,18,0,223.75,223.75,60.949,-17.257,1011.7,12.27,-999.0,yes,yes,no,300234063730900,BD2GI,AOML,BRUARFOSS,North
2018-08-11T19:00:28Z,1534014029,2018,19,0,223.792,223.792,60.956,-17.269,1012.1,12.26,-999.0,yes,yes,no,300234063730900,BD2GI,AOML,BRUARFOSS,North
2018-08-11T19:59:31Z,1534017571,2018,20,0,223.833,223.833,60.964,-17.278,1012.3,12.27,-999.0,yes,yes,no,300234063730900,BD2GI,AOML,BRUARFOSS,North
2018-08-11T21:00:00Z,1534021200,2018,21,0,223.875,223.875,60.972,-17.281,1012.1,12.28,-999.0,yes,yes,no,300234063730900,BD2GI,AOML,BRUARFOSS,North
2018-08-11T22:00:28Z,1534024829,2018,22,0,223.917,223.917,60.978,-17.282,1012.1,12.27,-999.0,yes,yes,no,300234063730900,BD2GI,AOML,BRUARFOSS,North
2018-08-11T22:59:31Z,1534028371,2018,23,0,223.958,223.958,60.984,-17.282,1012.1,12.27,-999.0,yes,yes,no,300234063730900,BD2GI,AOML,BRUARFOSS,North
2018-08-12T00:00:00Z,1534032000,2018,0,0,224.0,224.0,60.988,-17.282,1011.9,12.26,-999.0,yes,yes,no,300234063730900,BD2GI,AOML,BRUARFOSS,North
2018-08-12T01:00:28Z,1534035629,2018,1,0,224.042,224.042,60.991,-17.281,1011.6,12.23,-999.0,yes,yes,no,300234063730900,BD2GI,AOML,BRUARFOSS,North
2018-08-12T01:59:31Z,1534039171,2018,2,0,224.083,224.083,60.991,-17.283,1011.2,12.19,-999.0,yes,yes,no,300234063730900,BD2GI,AOML,BRUARFOSS,North
2018-08-12T03:00:00Z,1534042800,2018,3,0,224.125,224.125,60.99,-17.29,1010.8,12.22,-999.0,yes,yes,no,300234063730900,BD2GI,AOML,BRUARFOSS,North
2018-08-12T04:00:28Z,1534046429,2018,4,0,224.167,224.167,60.989,-17.303,1010.4,12.21,-999.0,yes,yes,no,300234063730900,BD2GI,AOML,BRUARFOSS,North
2018-08-12T04:59:31Z,1534049971,2018,5,0,224.208,224.208,60.99,-17.32,1010.1,12.18,-999.0,yes,yes,no,300234063730900,BD2GI,AOML,BRUARFOSS,North
2018-08-12T06:00:00Z,1534053600,2018,6,0,224.25,224.25,60.992,-17.337,1010.2,12.21,-999.0,yes,yes,no,300234063730900,BD2GI,AOML,BRUARFOSS,North
2018-08-12T07:00:28Z,1534057229,2018,7,0,224.292,224.292,60.996,-17.351,1010.5,12.17,-999.0,yes,yes,no,300234063730900,BD2GI,AOML,BRUARFOSS,North
2018-08-12T07:59:31Z,1534060771,2018,8,0,224.333,224.333,61.0,-17.363,1010.6,12.19,-999.0,yes,yes,no,300234063730900,BD2GI,AOML,BRUARFOSS,North
2018-08-12T09:00:00Z,1534064400,2018,9,0,224.375,224.375,61.006,-17.374,1010.5,12.16,-999.0,yes,yes,no,300234063730900,BD2GI,AOML,BRUARFOSS,North
2018-08-12T10:00:28Z,1534068029,2018,10,0,224.417,224.417,61.013,-17.383,1010.4,12.19,-999.0,yes,yes,no,300234063730900,BD2GI,AOML,BRUARFOSS,North
2018-08-12T10:59:31Z,1534071571,2018,11,0,224.458,224.458,61.02,-17.39,1010.4,12.17,-999.0,yes,yes,no,300234063730900,BD2GI,AOML,BRUARFOSS,North
2018-08-12T12:00:00Z,1534075200,2018,12,0,224.5,224.5,61.027,-17.393,1010.4,12.16,-999.0,yes,yes,no,300234063730900,BD2GI,AOML,BRUARFOSS,North
2018-08-12T13:00:28Z,1534078829,2018,13,0,224.542,224.542,61.031,-17.395,1010.3,12.15,-999.0,yes,yes,no,300234063730900,BD2GI,AOML,BRUARFOSS,North
2018-08-12T13:59:31Z,1534082371,2018,14,0,224.583,224.583,61.033,-17.394,1010.1,12.23,-999.0,yes,yes,no,300234063730900,BD2GI,AOML,BRUARFOSS,North
2018-08-12T15:00:00Z,1534086000,2018,15,0,224.625,224.625,61.033,-17.395,1009.7,12.21,-999.0,yes,yes,no,300234063730900,BD2GI,AOML,BRUARFOSS,North
2018-08-12T16:00:28Z,1534089629,2018,16,0,224.667,224.667,61.032,-17.401,1009.3,12.18,-999.0,yes,yes,no,300234063730900,BD2GI,AOML,BRUARFOSS,North
2018-08-12T16:59:31Z,1534093171,2018,17,0,224.708,224.708,61.03,-17.412,1008.7,12.24,-999.0,yes,yes,no,300234063730900,BD2GI,AOML,BRUARFOSS,North
2018-08-12T18:00:00Z,1534096800,2018,18,0,224.75,224.75,61.028,-17.429,1008.3,12.16,-999.0,yes,yes,no,300234063730900,BD2GI,AOML,BRUARFOSS,North
2018-08-12T19:00:28Z,1534100429,2018,19,0,224.792,224.792,61.029,-17.445,1008.2,12.17,-999.0,yes,yes,no,300234063730900,BD2GI,AOML,BRUARFOSS,North
2018-08-12T19:59:31Z,1534103971,2018,20,0,224.833,224.833,61.032,-17.462,1007.8,12.19,-999.0,yes,yes,no,300234063730900,BD2GI,AOML,BRUARFOSS,North
2018-08-12T21:00:00Z,1534107600,2018,21,0,224.875,224.875,61.038,-17.476,1007.7,12.16,-999.0,yes,yes,no,300234063730900,BD2GI,AOML,BRUARFOSS,North
2018-08-12T22:00:28Z,1534111229,2018,22,0,224.917,224.917,61.045,-17.488,1007.6,12.15,-999.0,yes,yes,no,300234063730900,BD2GI,AOML,BRUARFOSS,North
2018-08-12T22:59:31Z,1534114771,2018,23,0,224.958,224.958,61.052,-17.494,1007.4,12.14,-999.0,yes,yes,no,300234063730900,BD2GI,AOML,BRUARFOSS,North
2018-08-13T00:00:00Z,1534118400,2018,0,0,225.0,225.0,61.059,-17.498,1007.1,12.13,-999.0,yes,yes,no,300234063730900,BD2GI,AOML,BRUARFOSS,North
2018-08-13T01:00:28Z,1534122029,2018,1,0,225.042,225.042,61.065,-17.496,1006.9,12.13,-999.0,yes,yes,no,300234063730900,BD2GI,AOML,BRUARFOSS,North
2018-08-13T01:59:31Z,1534125571,2018,2,0,225.083,225.083,61.069,-17.491,1006.5,12.15,-999.0,yes,yes,no,300234063730900,BD2GI,AOML,BRUARFOSS,North
2018-08-13T03:00:00Z,1534129200,2018,3,0,225.125,225.125,61.07,-17.485,1006.2,12.17,-999.0,yes,yes,no,300234063730900,BD2GI,AOML,BRUARFOSS,North
2018-08-13T04:00:28Z,1534132829,2018,4,0,225.167,225.167,61.068,-17.479,1005.8,12.17,-999.0,yes,yes,no,300234063730900,BD2GI,AOML,BRUARFOSS,North
2018-08-13T04:59:31Z,1534136371,2018,5,0,225.208,225.208,61.064,-17.476,1005.5,12.18,-999.0,yes,yes,no,300234063730900,BD2GI,AOML,BRUARFOSS,North
2018-08-13T06:00:00Z,1534140000,2018,6,0,225.25,225.25,61.059,-17.48,1005.2,12.19,-999.0,yes,yes,no,300234063730900,BD2GI,AOML,BRUARFOSS,North
2018-08-13T07:00:28Z,1534143629,2018,7,0,225.292,225.292,61.053,-17.488,1005.2,12.17,-999.0,yes,yes,no,300234063730900,BD2GI,AOML,BRUARFOSS,North
2018-08-13T07:59:31Z,1534147171,2018,8,0,225.333,225.333,61.049,-17.498,1005.2,12.21,-999.0,yes,yes,no,300234063730900,BD2GI,AOML,BRUARFOSS,North
2018-08-13T09:00:00Z,1534150800,2018,9,0,225.375,225.375,61.047,-17.511,1005.0,12.22,-999.0,yes,yes,no,300234063730900,BD2GI,AOML,BRUARFOSS,North
2018-08-13T10:00:28Z,1534154429,2018,10,0,225.417,225.417,61.048,-17.525,1004.6,12.22,-999.0,yes,yes,no,300234063730900,BD2GI,AOML,BRUARFOSS,North
2018-08-13T10:59:31Z,1534157971,2018,11,0,225.458,225.458,61.052,-17.538,1004.7,12.29,-999.0,yes,yes,no,300234063730900,BD2GI,AOML,BRUARFOSS,North
2018-08-13T12:00:00Z,1534161600,2018,12,0,225.5,225.5,61.057,-17.546,1004.5,12.35,-999.0,yes,yes,no,300234063730900,BD2GI,AOML,BRUARFOSS,North
2018-08-13T13:00:28Z,1534165229,2018,13,0,225.542,225.542,61.064,-17.548,1004.3,12.29,-999.0,yes,yes,no,300234063730900,BD2GI,AOML,BRUARFOSS,North
2018-08-13T13:59:31Z,1534168771,2018,14,0,225.583,225.583,61.07,-17.546,1003.8,12.33,-999.0,yes,yes,no,300234063730900,BD2GI,AOML,BRUARFOSS,North
2018-08-13T15:00:00Z,1534172400,2018,15,0,225.625,225.625,61.076,-17.539,1003.3,12.4,-999.0,yes,yes,no,300234063730900,BD2GI,AOML,BRUARFOSS,North
2018-08-13T16:00:28Z,1534176029,2018,16,0,225.667,225.667,61.08,-17.529,1002.7,12.4,-999.0,yes,yes,no,300234063730900,BD2GI,AOML,BRUARFOSS,North
2018-08-13T16:59:31Z,1534179571,2018,17,0,225.708,225.708,61.082,-17.521,1002.4,12.35,-999.0,yes,yes,no,300234063730900,BD2GI,AOML,BRUARFOSS,North
2018-08-13T18:00:00Z,1534183200,2018,18,0,225.75,225.75,61.08,-17.515,1002.1,12.41,-999.0,yes,yes,no,300234063730900,BD2GI,AOML,BRUARFOSS,North
2018-08-13T19:00:28Z,1534186829,2018,19,0,225.792,225.792,61.078,-17.516,1000.8,12.38,-999.0,yes,yes,no,300234063730900,BD2GI,AOML,BRUARFOSS,North
2018-08-13T19:59:31Z,1534190371,2018,20,0,225.833,225.833,61.077,-17.516,1001.0,12.37,-999.0,yes,yes,no,300234063730900,BD2GI,AOML,BRUARFOSS,North
2018-08-13T21:00:00Z,1534194000,2018,21,0,225.875,225.875,61.078,-17.516,1000.8,12.38,-999.0,yes,yes,no,300234063730900,BD2GI,AOML,BRUARFOSS,North
2018-08-13T22:00:28Z,1534197629,2018,22,0,225.917,225.917,61.079,-17.517,1000.5,12.41,-999.0,yes,yes,no,300234063730900,BD2GI,AOML,BRUARFOSS,North
2018-08-13T22:59:31Z,1534201171,2018,23,0,225.958,225.958,61.083,-17.52,1000.1,12.38,-999.0,yes,yes,no,300234063730900,BD2GI,AOML,BRUARFOSS,North
2018-08-14T00:00:00Z,1534204800,2018,0,0,226.0,226.0,61.09,-17.518,999.5,12.37,-999.0,yes,yes,no,300234063730900,BD2GI,AOML,BRUARFOSS,North
2018-08-14T01:00:28Z,1534208429,2018,1,0,226.042,226.042,61.097,-17.505,999.5,12.36,-999.0,yes,yes,no,300234063730900,BD2GI,AOML,BRUARFOSS,North
2018-08-14T01:59:31Z,1534211971,2018,2,0,226.083,226.083,61.104,-17.488,999.5,12.31,-999.0,yes,yes,no,300234063730900,BD2GI,AOML,BRUARFOSS,North
2018-08-14T03:00:00Z,1534215600,2018,3,0,226.125,226.125,61.11,-17.465,999.3,12.31,-999.0,yes,yes,no,300234063730900,BD2GI,AOML,BRUARFOSS,North
2018-08-14T04:00:28Z,1534219229,2018,4,0,226.167,226.167,61.114,-17.435,999.3,12.23,-999.0,yes,yes,no,300234063730900,BD2GI,AOML,BRUARFOSS,North
2018-08-14T04:59:31Z,1534222771,2018,5,0,226.208,226.208,61.114,-17.405,999.2,12.24,-999.0,yes,yes,no,300234063730900,BD2GI,AOML,BRUARFOSS,North
2018-08-14T06:00:00Z,1534226400,2018,6,0,226.25,226.25,61.112,-17.377,999.5,12.24,-999.0,yes,yes,no,300234063730900,BD2GI,AOML,BRUARFOSS,North
2018-08-14T07:00:28Z,1534230029,2018,7,0,226.292,226.292,61.107,-17.352,999.5,12.23,-999.0,yes,yes,no,300234063730900,BD2GI,AOML,BRUARFOSS,North
2018-08-14T07:59:31Z,1534233571,2018,8,0,226.333,226.333,61.101,-17.333,999.8,12.2,-999.0,yes,yes,no,300234063730900,BD2GI,AOML,BRUARFOSS,North
2018-08-14T09:00:00Z,1534237200,2018,9,0,226.375,226.375,61.095,-17.323,999.8,12.19,-999.0,yes,yes,no,300234063730900,BD2GI,AOML,BRUARFOSS,North
2018-08-14T10:00:28Z,1534240829,2018,10,0,226.417,226.417,61.092,-17.32,999.7,12.24,-999.0,yes,yes,no,300234063730900,BD2GI,AOML,BRUARFOSS,North
2018-08-14T10:59:31Z,1534244371,2018,11,0,226.458,226.458,61.093,-17.322,999.8,12.24,-999.0,yes,yes,no,300234063730900,BD2GI,AOML,BRUARFOSS,North
2018-08-14T12:00:00Z,1534248000,2018,12,0,226.5,226.5,61.1,-17.324,999.9,12.28,-999.0,yes,yes,no,300234063730900,BD2GI,AOML,BRUARFOSS,North
2018-08-14T13:00:28Z,1534251629,2018,13,0,226.542,226.542,61.11,-17.322,999.8,12.32,-999.0,yes,yes,no,300234063730900,BD2GI,AOML,BRUARFOSS,North
2018-08-14T13:59:31Z,1534255171,2018,14,0,226.583,226.583,61.12,-17.316,999.5,12.33,-999.0,yes,yes,no,300234063730900,BD2GI,AOML,BRUARFOSS,North
2018-08-14T15:00:00Z,1534258800,2018,15,0,226.625,226.625,61.132,-17.303,999.1,12.36,-999.0,yes,yes,no,300234063730900,BD2GI,AOML,BRUARFOSS,North
2018-08-14T16:00:28Z,1534262429,2018,16,0,226.667,226.667,61.144,-17.282,998.5,12.38,-999.0,yes,yes,no,300234063730900,BD2GI,AOML,BRUARFOSS,North
2018-08-14T16:59:31Z,1534265971,2018,17,0,226.708,226.708,61.155,-17.26,997.9,12.37,-999.0,yes,yes,no,300234063730900,BD2GI,AOML,BRUARFOSS,North
2018-08-14T18:00:00Z,1534269600,2018,18,0,226.75,226.75,61.162,-17.238,997.4,12.38,-999.0,yes,yes,no,300234063730900,BD2GI,AOML,BRUARFOSS,North
2018-08-14T19:00:28Z,1534273229,2018,19,0,226.792,226.792,61.165,-17.215,996.8,12.41,-999.0,yes,yes,no,300234063730900,BD2GI,AOML,BRUARFOSS,North
2018-08-14T19:59:31Z,1534276771,2018,20,0,226.833,226.833,61.167,-17.196,996.4,12.38,-999.0,yes,yes,no,300234063730900,BD2GI,AOML,BRUARFOSS,North
2018-08-14T21:00:00Z,1534280400,2018,21,0,226.875,226.875,61.166,-17.183,995.9,12.38,-999.0,yes,yes,no,300234063730900,BD2GI,AOML,BRUARFOSS,North
2018-08-14T22:00:28Z,1534284029,2018,22,0,226.917,226.917,61.166,-17.173,995.4,12.37,-999.0,yes,yes,no,300234063730900,BD2GI,AOML,BRUARFOSS,North
2018-08-14T22:59:31Z,1534287571,2018,23,0,226.958,226.958,61.168,-17.171,994.8,12.36,-999.0,yes,yes,no,300234063730900,BD2GI,AOML,BRUARFOSS,North
2018-08-15T00:00:00Z,1534291200,2018,0,0,227.0,227.0,61.172,-17.176,994.0,12.36,-999.0,yes,yes,no,300234063730900,BD2GI,AOML,BRUARFOSS,North
2018-08-15T01:00:28Z,1534294829,2018,1,0,227.042,227.042,61.179,-17.18,993.3,12.36,-999.0,yes,yes,no,300234063730900,BD2GI,AOML,BRUARFOSS,North
2018-08-15T01:59:31Z,1534298371,2018,2,0,227.083,227.083,61.188,-17.182,992.7,12.36,-999.0,yes,yes,no,300234063730900,BD2GI,AOML,BRUARFOSS,North
2018-08-15T03:00:00Z,1534302000,2018,3,0,227.125,227.125,61.2,-17.183,991.8,12.35,-999.0,yes,yes,no,300234063730900,BD2GI,AOML,BRUARFOSS,North
2018-08-15T04:00:28Z,1534305629,2018,4,0,227.167,227.167,61.212,-17.183,990.7,12.31,-999.0,yes,yes,no,300234063730900,BD2GI,AOML,BRUARFOSS,North
2018-08-15T04:59:31Z,1534309171,2018,5,0,227.208,227.208,61.225,-17.182,989.8,12.31,-999.0,yes,yes,no,300234063730900,BD2GI,AOML,BRUARFOSS,North
2018-08-15T06:00:00Z,1534312800,2018,6,0,227.25,227.25,61.236,-17.174,989.0,12.27,-999.0,yes,yes,no,300234063730900,BD2GI,AOML,BRUARFOSS,North
2018-08-15T07:00:28Z,1534316429,2018,7,0,227.292,227.292,61.247,-17.161,988.4,12.26,-999.0,yes,yes,no,300234063730900,BD2GI,AOML,BRUARFOSS,North
2018-08-15T07:59:31Z,1534319971,2018,8,0,227.333,227.333,61.255,-17.146,988.0,12.26,-999.0,yes,yes,no,300234063730900,BD2GI,AOML,BRUARFOSS,North
2018-08-15T09:00:00Z,1534323600,2018,9,0,227.375,227.375,61.26,-17.127,987.8,12.25,-999.0,yes,yes,no,300234063730900,BD2GI,AOML,BRUARFOSS,North
2018-08-15T10:00:28Z,1534327229,2018,10,0,227.417,227.417,61.262,-17.108,987.7,12.24,-999.0,yes,yes,no,300234063730900,BD2GI,AOML,BRUARFOSS,North
2018-08-15T10:59:31Z,1534330771,2018,11,0,227.458,227.458,61.264,-17.092,987.8,12.28,-999.0,yes,yes,no,300234063730900,BD2GI,AOML,BRUARFOSS,North
2018-08-15T12:00:00Z,1534334400,2018,12,0,227.5,227.5,61.267,-17.08,987.9,12.29,-999.0,yes,yes,no,300234063730900,BD2GI,AOML,BRUARFOSS,North
2018-08-15T13:00:28Z,1534338029,2018,13,0,227.542,227.542,61.271,-17.073,987.9,12.37,-999.0,yes,yes,no,300234063730900,BD2GI,AOML,BRUARFOSS,North
2018-08-15T13:59:31Z,1534341571,2018,14,0,227.583,227.583,61.276,-17.068,988.1,12.47,-999.0,yes,yes,no,300234063730900,BD2GI,AOML,BRUARFOSS,North
2018-08-15T15:00:00Z,1534345200,2018,15,0,227.625,227.625,61.283,-17.06,988.2,12.48,-999.0,yes,yes,no,300234063730900,BD2GI,AOML,BRUARFOSS,North
2018-08-15T16:00:28Z,1534348829,2018,16,0,227.667,227.667,61.291,-17.049,988.2,12.57,-999.0,yes,yes,no,300234063730900,BD2GI,AOML,BRUARFOSS,North
2018-08-15T16:59:31Z,1534352371,2018,17,0,227.708,227.708,61.298,-17.038,988.2,12.59,-999.0,yes,yes,no,300234063730900,BD2GI,AOML,BRUARFOSS,North
2018-08-15T18:00:00Z,1534356000,2018,18,0,227.75,227.75,61.305,-17.026,988.6,12.64,-999.0,yes,yes,no,300234063730900,BD2GI,AOML,BRUARFOSS,North
2018-08-15T19:00:28Z,1534359629,2018,19,0,227.792,227.792,61.312,-17.009,988.8,12.62,-999.0,yes,yes,no,300234063730900,BD2GI,AOML,BRUARFOSS,North
2018-08-15T19:59:31Z,1534363171,2018,20,0,227.833,227.833,61.316,-16.986,989.3,12.55,-999.0,yes,yes,no,300234063730900,BD2GI,AOML,BRUARFOSS,North
2018-08-15T21:00:00Z,1534366800,2018,21,0,227.875,227.875,61.318,-16.966,989.8,12.53,-999.0,yes,yes,no,300234063730900,BD2GI,AOML,BRUARFOSS,North
2018-08-15T22:00:28Z,1534370429,2018,22,0,227.917,227.917,61.315,-16.947,990.4,12.62,-999.0,yes,yes,no,300234063730900,BD2GI,AOML,BRUARFOSS,North
2018-08-15T22:59:31Z,1534373971,2018,23,0,227.958,227.958,61.31,-16.933,991.1,12.6,-999.0,yes,yes,no,300234063730900,BD2GI,AOML,BRUARFOSS,North
2018-08-16T00:00:00Z,1534377600,2018,0,0,228.0,228.0,61.303,-16.923,992.0,12.5,-999.0,yes,yes,no,300234063730900,BD2GI,AOML,BRUARFOSS,North
2018-08-16T01:00:28Z,1534381229,2018,1,0,228.042,228.042,61.297,-16.918,992.7,12.54,-999.0,yes,yes,no,300234063730900,BD2GI,AOML,BRUARFOSS,North
2018-08-16T01:59:31Z,1534384771,2018,2,0,228.083,228.083,61.293,-16.912,993.3,12.53,-999.0,yes,yes,no,300234063730900,BD2GI,AOML,BRUARFOSS,North
2018-08-16T03:00:00Z,1534388400,2018,3,0,228.125,228.125,61.292,-16.906,993.6,12.5,-999.0,yes,yes,no,300234063730900,BD2GI,AOML,BRUARFOSS,North
2018-08-16T04:00:28Z,1534392029,2018,4,0,228.167,228.167,61.292,-16.9,993.9,12.45,-999.0,yes,yes,no,300234063730900,BD2GI,AOML,BRUARFOSS,North
2018-08-16T04:59:31Z,1534395571,2018,5,0,228.208,228.208,61.294,-16.889,994.3,12.44,-999.0,yes,yes,no,300234063730900,BD2GI,AOML,BRUARFOSS,North
2018-08-16T06:00:00Z,1534399200,2018,6,0,228.25,228.25,61.297,-16.881,994.7,12.42,-999.0,yes,yes,no,300234063730900,BD2GI,AOML,BRUARFOSS,North
2018-08-16T07:00:28Z,1534402829,2018,7,0,228.292,228.292,61.301,-16.868,994.8,12.41,-999.0,yes,yes,no,300234063730900,BD2GI,AOML,BRUARFOSS,North
2018-08-16T07:59:31Z,1534406371,2018,8,0,228.333,228.333,61.304,-16.854,995.2,12.42,-999.0,yes,yes,no,300234063730900,BD2GI,AOML,BRUARFOSS,North
2018-08-16T09:00:00Z,1534410000,2018,9,0,228.375,228.375,61.306,-16.84,995.5,12.43,-999.0,yes,yes,no,300234063730900,BD2GI,AOML,BRUARFOSS,North
2018-08-16T10:00:28Z,1534413629,2018,10,0,228.417,228.417,61.306,-16.824,995.9,12.41,-999.0,yes,yes,no,300234063730900,BD2GI,AOML,BRUARFOSS,North
2018-08-16T10:59:31Z,1534417171,2018,11,0,228.458,228.458,61.306,-16.804,996.3,12.43,-999.0,yes,yes,no,300234063730900,BD2GI,AOML,BRUARFOSS,North
2018-08-16T12:00:00Z,1534420800,2018,12,0,228.5,228.5,61.307,-16.789,996.4,12.41,-999.0,yes,yes,no,300234063730900,BD2GI,AOML,BRUARFOSS,North
2018-08-16T13:00:28Z,1534424429,2018,13,0,228.542,228.542,61.31,-16.774,996.7,12.44,-999.0,yes,yes,no,300234063730900,BD2GI,AOML,BRUARFOSS,North
2018-08-16T13:59:31Z,1534427971,2018,14,0,228.583,228.583,61.314,-16.756,997.2,12.45,-999.0,yes,yes,no,300234063730900,BD2GI,AOML,BRUARFOSS,North
2018-08-16T15:00:00Z,1534431600,2018,15,0,228.625,228.625,61.316,-16.739,997.2,12.44,-999.0,yes,yes,no,300234063730900,BD2GI,AOML,BRUARFOSS,North
2018-08-16T16:00:28Z,1534435229,2018,16,0,228.667,228.667,61.317,-16.725,997.5,12.45,-999.0,yes,yes,no,300234063730900,BD2GI,AOML,BRUARFOSS,North
2018-08-16T16:59:31Z,1534438771,2018,17,0,228.708,228.708,61.318,-16.713,997.6,12.47,-999.0,yes,yes,no,300234063730900,BD2GI,AOML,BRUARFOSS,North
2018-08-16T18:00:00Z,1534442400,2018,18,0,228.75,228.75,61.319,-16.705,997.8,12.44,-999.0,yes,yes,no,300234063730900,BD2GI,AOML,BRUARFOSS,North
2018-08-16T19:00:28Z,1534446029,2018,19,0,228.792,228.792,61.32,-16.697,997.8,12.46,-999.0,yes,yes,no,300234063730900,BD2GI,AOML,BRUARFOSS,North
2018-08-16T19:59:31Z,1534449571,2018,20,0,228.833,228.833,61.322,-16.69,997.8,12.42,-999.0,yes,yes,no,300234063730900,BD2GI,AOML,BRUARFOSS,North
2018-08-16T21:00:00Z,1534453200,2018,21,0,228.875,228.875,61.325,-16.682,998.2,12.42,-999.0,yes,yes,no,300234063730900,BD2GI,AOML,BRUARFOSS,North
2018-08-16T22:00:28Z,1534456829,2018,22,0,228.917,228.917,61.328,-16.675,998.0,12.43,-999.0,yes,yes,no,300234063730900,BD2GI,AOML,BRUARFOSS,North
2018-08-16T22:59:31Z,1534460371,2018,23,0,228.958,228.958,61.332,-16.666,997.8,12.43,-999.0,yes,yes,no,300234063730900,BD2GI,AOML,BRUARFOSS,North
2018-08-17T00:00:00Z,1534464000,2018,0,0,229.0,229.0,61.336,-16.661,997.6,12.43,-999.0,yes,yes,no,300234063730900,BD2GI,AOML,BRUARFOSS,North
2018-08-17T01:00:28Z,1534467629,2018,1,0,229.042,229.042,61.344,-16.657,997.5,12.44,-999.0,yes,yes,no,300234063730900,BD2GI,AOML,BRUARFOSS,North
2018-08-17T01:59:31Z,1534471171,2018,2,0,229.083,229.083,61.351,-16.649,997.0,12.43,-999.0,yes,yes,no,300234063730900,BD2GI,AOML,BRUARFOSS,North
2018-08-17T03:00:00Z,1534474800,2018,3,0,229.125,229.125,61.358,-16.638,996.7,12.43,-999.0,yes,yes,no,300234063730900,BD2GI,AOML,BRUARFOSS,North
2018-08-17T04:00:28Z,1534478429,2018,4,0,229.167,229.167,61.366,-16.626,996.3,12.43,-999.0,yes,yes,no,300234063730900,BD2GI,AOML,BRUARFOSS,North
2018-08-17T04:59:31Z,1534481971,2018,5,0,229.208,229.208,61.375,-16.61,995.9,12.43,-999.0,yes,yes,no,300234063730900,BD2GI,AOML,BRUARFOSS,North
2018-08-17T06:00:00Z,1534485600,2018,6,0,229.25,229.25,61.381,-16.597,995.3,12.43,-999.0,yes,yes,no,300234063730900,BD2GI,AOML,BRUARFOSS,North
2018-08-17T07:00:28Z,1534489229,2018,7,0,229.292,229.292,61.387,-16.584,994.8,12.41,-999.0,yes,yes,no,300234063730900,BD2GI,AOML,BRUARFOSS,North
2018-08-17T07:59:31Z,1534492771,2018,8,0,229.333,229.333,61.392,-16.574,994.1,12.42,-999.0,yes,yes,no,300234063730900,BD2GI,AOML,BRUARFOSS,North
2018-08-17T09:00:00Z,1534496400,2018,9,0,229.375,229.375,61.398,-16.569,993.3,12.4,-999.0,yes,yes,no,300234063730900,BD2GI,AOML,BRUARFOSS,North
2018-08-17T10:00:28Z,1534500029,2018,10,0,229.417,229.417,61.402,-16.567,992.6,12.39,-999.0,yes,yes,no,300234063730900,BD2GI,AOML,BRUARFOSS,North
2018-08-17T10:59:31Z,1534503571,2018,11,0,229.458,229.458,61.408,-16.567,991.4,12.43,-999.0,yes,yes,no,300234063730900,BD2GI,AOML,BRUARFOSS,North
2018-08-17T12:00:00Z,1534507200,2018,12,0,229.5,229.5,61.415,-16.569,990.2,12.42,-999.0,yes,yes,no,300234063730900,BD2GI,AOML,BRUARFOSS,North
2018-08-17T13:00:28Z,1534510829,2018,13,0,229.542,229.542,61.423,-16.55,989.8,12.41,-999.0,yes,yes,no,300234063730900,BD2GI,AOML,BRUARFOSS,North
2018-08-17T13:59:31Z,1534514371,2018,14,0,229.583,229.583,61.431,-16.527,989.5,12.47,-999.0,yes,yes,no,300234063730900,BD2GI,AOML,BRUARFOSS,North